www.pogodaiklimat.ru

Погода и климат >> Архив погоды >> Россия >> Ставропольский край >> Кисловодск


АРХИВ ПОГОДЫ в Кисловодске

Время (UTC), дата Ветер
(напр.,м/с)
 
Видим.   Явления Облачность Т
(С)
Тd
(С)
f
(%)
Тe
(С)
Тes
(С)
Комфортность P
(гПа)
Po
(гПа)
Тmin
(С)
Tmax
(С)
R
(мм)
R24
(мм)
S
(см)
06 12.07 СЗ 1 1000 м слаб. ливневой дождь {туман} 10/10 600 м
[Cb cap]
+12.9 +12.5 97 +13 +13 очень
холодно
1006.4 900.8 +12.9
09 12.07 З 1 10 км {ливн. осадки} 10/10 600 м
[Cb cap]
+13.7 +12.3 91 +14 +14 очень
холодно
1006.8 901.4
12 12.07 С 1 10 км {ливн. осадки} 10/10 600 м
[Cb cap]
+13.9 +12.6 92 +14 +14 очень
холодно
1008.5 903.0
15 12.07 СВ 1 10 км 10/10 600 м
[Cb cap]
+14.3 +13.0 92 +15 +15 очень
холодно
1009.2 903.8 +14.9 5
18 12.07 штиль 0 10 км 10/10 1000 м
[Sc]
+13.6 +12.6 94 +13 +13 очень
холодно
1010.5 904.7
21 12.07 СВ 1 10 км 10/4 600 м
[Sc Ac und]
+12.8 +12.3 97 +13 +13 холодно 1010.3 904.3
00 13.07 Ю 1 10 км 10/0
[Ac cuf]
+12.8 +12.4 97 +13 +13 прохладно 1009.4 903.4
03 13.07 штиль 0 4000 м дымка 10/10 600 м
[Cb cap]
+12.9 +12.4 97 +12 +12 очень
холодно
1008.7 902.8 +12.5
06 13.07 штиль 0 10 км ливневой дождь 10/10 600 м
[Cb cap]
+13.6 +12.9 96 +13 +13 очень
холодно
1009.5 903.8
09 13.07 В 1 10 км слаб. ливневой дождь 9/9 600 м
[Cb cap]
+16.1 +14.1 88 +17 +19 очень
холодно
1008.7 904.0
12 13.07 штиль 0 10 км {ливн. осадки} 8/8 600 м
[Cb cap]
+20.2 +14.5 70 +22 +26 комфорт 1006.6 903.5
15 13.07 З 1 10 км в посл. час ливневой дождь 10/10 600 м
[Cb cap]
+15.3 +14.6 96 +16 +16 очень
холодно
1010.2 905.1 +20.7 6
18 13.07 Ю 2 10 км {ливн. осадки} 9/9 600 м
[Cb cap]
+13.5 +12.3 92 +13 +13 очень
холодно
1012.1 906.1
21 13.07 штиль 0 10 км 10/10 600 м
[Sc]
+13.6 +12.3 92 +13 +13 холодно 1011.9 906.0
00 14.07 ЮВ 1 10 км 10/10 600 м
[Sc]
+13.4 +12.4 94 +13 +13 прохладно 1010.9 905.0
03 14.07 штиль 0 10 км 10/10 600 м
[Sc]
+13.1 +11.5 90 +13 +13 очень
холодно
1011.3 905.2 +12.5 1
06 14.07 штиль 0 10 км 10/10 600 м
[Sc]
+14.2 +9.9 75 +14 +14 очень
холодно
1011.5 905.7
09 14.07 штиль 0 10 км 10/10 600 м
[Sc]
+16.5 +11.9 74 +16 +16 очень
холодно
1010.0 905.2
12 14.07 ЮВ 2 10 км 8/8 600 м
[Sc]
+19.1 +10.8 59 +21 +23 комфорт 1008.3 904.5
15 14.07 ЮВ 2 10 км 10/3 1000 м
[Cu med, cong Ac As Ci fib]
+18.2 +11.0 63 +19 +20 очень
холодно
1008.2 904.2 +20.4
18 14.07 Ю 4 10 км 10/0
[Ac As Ci fib]
+15.1 +11.3 78 +14 +14 очень
холодно
1009.3 904.1
21 14.07 Ю 2 10 км 4/0
[Ac As]
+11.5 +9.6 88 +10 +10 очень
холодно
1009.4 902.9
00 15.07 штиль 0 10 км ясно +11.0 +9.3 89 +10 +10 холодно 1008.1 901.5
03 15.07 ЮЗ 1 10 км 6/0
[Ac cast]
+13.5 +9.4 76 +14 +15 холодно 1006.2 900.7 +9.7
06 15.07 ЮВ 4-10
{10}
10 км 6/6 1000 м
[Cu med, cong]
+18.2 +11.2 64 +18 +21 холодно 1004.1 900.5
09 15.07 ЮВ 4
{11}
10 км 10/0
[Ac trans Ci fib]
+20.4 +9.6 50 +22 +30 комфорт 1002.5 899.8
12 15.07 ЮВ 3
{10}
10 км 9/9 1000 м
[Cb cap]
+21.1 +11.1 53 +23 +24 комфорт 1001.3 898.9
15 15.07 Ю 1 10 км 9/8 600 м
[Cb cap Ac cuf]
+19.5 +13.2 67 +22 +22 комфорт 1001.4 898.6 +23.0
18 15.07 ЮЗ 1 10 км в посл. час ливневой дождь {гроза} 10/10 600 м
[Cb cap]
+15.2 +14.6 96 +16 +16 холодно 1006.8 902.1
21 15.07 ЮЗ 1 10 км {ливн. осадки} 8/3 1000 м
[Sc Ac cuf Ci fib]
+13.6 +12.8 95 +14 +14 холодно 1005.3 900.1
00 16.07 Ю 2 10 км {ливн. осадки} ясно +11.0 +10.5 97 +10 +10 холодно 1006.9 900.5
03 16.07 ЮЗ 1 10 км 8/8 1000 м
[Sc]
+11.7 +11.1 96 +11 +12 очень
холодно
1007.6 901.4 +10.1 12
06 16.07 СВ 1 10 км 6/0
[Ci fib]
+20.1 +11.7 58 +23 +34 комфорт 1004.4 901.4
09 16.07 С 1 10 км 10/6 600 м
[Sc Ac As Ci fib]
+21.6 +15.6 69 +25 +29 комфорт 1003.9 901.6
12 16.07 СВ 1 10 км 9/9 600 м
[Cb cap]
+22.6 +15.6 65 +27 +28 душно 1003.2 901.3
15 16.07 С 1 10 км гроза без осадков 9/8 600 м
[Cb cap Ac cuf]
+20.0 +15.5 75 +23 +24 комфорт 1005.4 902.4 +24.5
18 16.07 штиль 0 10 км {гроза} 9/5 600 м
[Cb cap Ac cuf]
+16.3 +14.1 87 +16 +16 холодно 1009.9 905.2
21 16.07 С 1 10 км 10/10 600 м
[Sc]
+15.9 +13.2 84 +17 +17 прохладно 1010.4 905.5
00 17.07 штиль 0 10 км 10/10 600 м
[Sc]
+14.4 +12.1 86 +14 +14 прохладно 1010.7 905.2
03 17.07 Ю 1 10 км 10/6 1000 м
[Sc Ac lent]
+14.5 +12.4 87 +15 +15 холодно 1010.9 905.4 +13.0
06 17.07 Ю 1 10 км 10/10 600 м
[Sc]
+18.0 +11.1 64 +19 +19 холодно 1009.1 904.9
09 17.07 С 1 10 км 10/10 600 м
[Cb cap]
+20.6 +12.3 59 +24 +24 комфорт 1006.8 903.7
12 17.07 ЮВ 1 10 км 9/9 1000 м
[Sc]
+21.9 +12.2 54 +24 +26 комфорт 1005.8 903.3
15 17.07 ЮВ 2 10 км 4/4 1000 м
[Sc diur, vesp]
+20.7 +12.5 59 +24 +25 комфорт 1006.2 903.2 +22.3
18 17.07 Ю 2 10 км 3/3 1000 м
[Sc]
+17.4 +13.0 75 +18 +18 прохладно 1008.0 903.8
21 17.07 Ю 3 10 км ясно +16.4 +12.2 76 +16 +16 прохладно 1007.5 902.9
00 18.07 ЮВ 3 10 км 10/0
[Ci fib]
+16.8 +11.1 69 +17 +17 по сезону 1005.4 901.2
03 18.07 штиль 0 10 км 4/0
[Ac und Ci fib]
+14.8 +11.5 81 +15 +16 холодно 1007.3 902.2 +13.7
06 18.07 ЮВ 4 10 км 6/3 1000 м
[Sc Ac lent]
+20.5 +13.5 64 +23 +26 комфорт 1003.9 901.2
09 18.07 С 1
{11}
10 км 10/8 600 м
[Cb cap Ac As Ci fib]
+22.2 +16.0 68 +26 +28 душно 1004.7 902.5
12 18.07 Ю 1 10 км 10/10 600 м
[Cb cap]
+22.0 +15.1 65 +26 +26 душно 1005.9 903.5
15 18.07 Ю 2 10 км гроза, ливневой дождь 10/10 600 м
[Cb cap]
+19.1 +16.5 85 +21 +21 комфорт 1008.6 905.0 +23.8
18 18.07 штиль 0 10 км 9/6 600 м
[Cb cap Ac cast]
+16.7 +13.8 83 +17 +17 холодно 1009.8 905.2
21 18.07 Ю 1 10 км 10/10 600 м
[Sc]
+15.4 +14.8 96 +16 +16 прохладно 1010.9 905.8
00 19.07 штиль 0 10 км 10/6 600 м
[Sc Ac und]
+15.8 +15.1 96 +16 +16 по сезону 1011.4 906.4

 

Местоположение метеостанции Кисловодск (Ставропольский край, Россия): широта 43.90 долгота 42.72 высота над уровнем моря 943 м.

В архиве по умолчанию представлена погода в Кисловодске за последнюю неделю. Архивные данные за месяц целиком и за предыдущие месяцы, начиная с января 2011 года, Вы можете получить, выбрав интересующий диапазон дат из раскрывающегося списка и нажав кнопку "Ввод!".


*Определитесь, кто Вы:
робот инопланетянин человек

Внимание! Время в таблицах - всемирное. Для получения местного времени необходимо прибавить поправку, которая равна 3 ч.

Смотрите также архив погоды в соседних городах и на ближайших метеорологических станциях:

Погода в Шаджатмазе (Карачаево-Черкессия, Россия) (19 км)
Погода в Минеральных Водах (Ставропольский край, Россия) (47 км)
Погода в Тырныаузе (Кабардино-Балкария, Россия) (60 км)
Погода в Черкесске (Карачаево-Черкессия, Россия) (63 км)
Погода в Георгиевске (Ставропольский край, Россия) (64 км)
Погода в Архызе (Карачаево-Черкессия, Россия) (71 км)
Погода на Леднике Гарабаши (Карачаево-Черкессия, Россия) (73 км)
Погода в Терсколе (Кабардино-Балкария, Россия) (74 км)
Погода в Чегете (Кабардино-Балкария, Россия) (76 км)
Погода в Нальчике (Кабардино-Балкария, Россия) (84 км)

Пояснения к столбцам:

Ветер - указаны скорость ветра в м/с - средняя за 10 мин, порывы в срок и между сроками (в фигурных скобках) и направление, откуда дует ветер: С - северный, СВ - северо-восточный, В - восточный, ЮВ - юго-восточный, Ю - южный, ЮЗ - юго-западный, З - западный, СЗ - северо-западный.
Видимость - горизонтальная дальность видимости в метрах или километрах. При видимости от 1 до 10 км при отсутствии осадков обычно наблюдается дымка, при ухудшении видимости до 1 км и менее - туман. В сухую погоду видимость может ухудшаться дымом, пылью или мглою.
Явления - указаны атмосферные явления, наблюдавшиеся в срок или в последний час перед сроком; фигурными скобками обозначены явления, наблюдавшиеся между сроками (за 1-3 часа до срока); квадратными скобками обозначены град или гололедные отложения с указанием их диаметра в мм.
Облачность - указаны через наклонную черту общая и нижняя облачность в баллах и высота нижней границы облаков в метрах; квадратными скобками обозначены формы облаков: Ci - перистые, Cs - перисто-слоистые, Cc - перисто-кучевые, Ac - высококучевые, As - высокослоистые, Sc - слоисто-кучевые, Ns - слоисто-дождевые, Cu - кучевые, Cb - кучево-дождевые. Подробнее классификацию облаков см. в Атласе облаков (PDF).
T - Температура воздуха - температура, измеренная на высоте 2 м над землей.
Td - Температура точки росы - температура, при понижении до которой содержащийся в воздухе водяной пар достигнет насыщения.
f - Относительная влажность воздуха - влажноcть воздуха, измеренная на высоте 2 м над землей.
Te - Эффективная температура - температура, которую ощущает одетый по сезону человек в тени. Характеристика душности погоды. При расчете учитывается влияние влажности воздуха и скорости ветра на теплоощущения человека.
Tes - Эффективная температура на солнце - температура, которую ощущает человек, с поправкой на солнечный нагрев. Характеристика знойности погоды. Зависит от высоты солнца над горизонтом, облачности и скорости ветра. Ночью, в пасмурную погоду, а также при ветре 12 м/с и более поправка равна нулю.
P - Атмосферное давление - приведенное к уровню моря атмосферное давление.
Po - Атмосферное давление - измеренное на уровне метеостанции атмосферное давление.
Tmin - Минимальная температура - минимум температуры воздуха на высоте 2 м над землей.
Tmax - Максимальная температура - максимум температуры воздуха на высоте 2 м над землей.
R - Количество осадков - Количество выпавших осадков за период времени, мм. При наведении курсора мыши на число - период времени, за который выпало указанное количество осадков.
R24 - Количество осадков - Количество выпавших осадков за 24 часа, мм.
S - Снежный покров - Высота снежного покрова, см. При наведении курсора мыши на число - состояние снежного покрова и степень покрытия местности в баллах.